CW2840 Weather Reports


Display with metric or nautical units.
time (UTC)temp
F
wind
direction
speed
MPH
gust
MPH
rain 1hr
in
rain 24hr
in
rain mn
in
humidity
%
barometer
mb
20260831091138 79 166 0.0 0.0 0.00 0.00 0.00 84 1015.2
20260831085638 79 166 0.0 0.0 0.00 0.00 0.00 83 1015.2
20260831084137 79 166 0.0 0.0 0.00 0.00 0.00 83 1015.2
20260831083336 80 165 0.0 0.0 0.00 0.00 0.00 82 1015.3
20260831081136 80 166 0.0 2.0 0.00 0.00 0.00 81 1015.3
20260831075636 80 166 0.0 0.0 0.00 0.00 0.00 80 1015.3
20260831074135 81 166 0.0 2.0 0.00 0.00 0.00 79 1015.5
20260831072634 81 166 1.0 3.0 0.00 0.00 0.00 79 1015.5
20260831071132 82 165 0.0 2.0 0.00 0.00 0.00 78 1015.5
20260831071025 82 165 0.0 3.0 0.00 0.00 0.00 77 1015.4
20260831064132 82 165 0.0 2.0 0.00 0.00 0.00 76 1015.5
20260831062631 83 165 0.0 5.0 0.00 0.00 0.00 76 1015.5
20260831061132 83 165 2.0 7.0 0.00 0.00 0.00 75 1015.5
20260831055632 83 169 2.0 7.0 0.00 0.00 0.00 75 1015.6
20260831054132 83 176 3.0 11.0 0.00 0.00 0.00 74 1015.5
20260831052632 84 154 2.0 9.0 0.00 0.00 0.00 73 1015.5
20260831052530 84 183 1.0 7.0 0.00 0.00 0.00 72 1015.4
20260831045630 84 148 2.0 9.0 0.00 0.00 0.00 71 1015.2
20260831044130 84 137 3.0 11.0 0.00 0.00 0.00 70 1015.2
20260831042631 84 162 2.0 7.0 0.00 0.00 0.00 69 1015.1
20260831041131 84 165 1.0 7.0 0.00 0.00 0.00 69 1015.0
20260831041007 85 168 2.0 5.0 0.00 0.00 0.00 67 1014.9
20260831034131 85 144 2.0 5.0 0.00 0.00 0.00 66 1014.8
20260831032630 86 151 3.0 9.0 0.00 0.00 0.00 64 1014.8
20260831031130 86 152 5.0 13.0 0.00 0.00 0.00 63 1014.6
20260831025629 87 137 3.0 11.0 0.00 0.00 0.00 61 1014.3
20260831024129 87 157 2.0 13.0 0.00 0.00 0.00 58 1014.2
20260831022630 87 151 3.0 7.0 0.00 0.00 0.00 57 1013.9
20260831021128 88 165 2.0 7.0 0.00 0.00 0.00 56 1013.7
20260831015628 88 169 2.0 7.0 0.00 0.00 0.00 54 1013.6
20260831014825 89 145 2.0 11.0 0.00 0.00 0.00 52 1013.4
20260831013335 90 158 5.0 14.0 0.00 0.00 0.00 50 1013.4
20260831011824 90 169 4.0 13.0 0.00 0.00 0.00 48 1013.5
20260831005627 91 154 9.0 18.0 0.00 0.00 0.00 46 1013.4
20260831004127 92 154 7.0 20.0 0.00 0.00 0.00 46 1013.2
20260831002628 93 178 10.0 18.0 0.00 0.00 0.00 46 1013.2
20260831001126 94 217 7.0 14.0 0.00 0.00 0.00 45 1013.1
20260830235625 94 121 5.0 14.0 0.00 0.00 0.00 44 1013.1
20260830234125 95 149 8.0 14.0 0.00 0.00 0.00 42 1013.0
20260830232627 96 109 3.0 16.0 0.00 0.00 0.00 41 1013.0
20260830231125 96 162 2.0 9.0 0.00 0.00 0.00 41 1013.0
20260830225625 96 114 3.0 11.0 0.00 0.00 0.00 42 1013.0
20260830224124 95 161 2.0 9.0 0.00 0.00 0.00 43 1013.1
20260830222624 95 171 4.0 7.0 0.00 0.00 0.00 44 1013.1
20260830221124 95 114 4.0 9.0 0.00 0.00 0.00 44 1013.2
20260830220318 96 155 7.0 18.0 0.00 0.00 0.00 42 1013.2
20260830214123 96 255 5.0 14.0 0.00 0.00 0.00 41 1013.2
20260830212622 96 159 3.0 11.0 0.00 0.00 0.00 41 1013.4
20260830211122 97 166 4.0 11.0 0.00 0.00 0.00 42 1013.6
20260830205622 97 99 3.0 18.0 0.00 0.00 0.00 42 1013.9
20260830204819 98 49 2.0 13.0 0.00 0.00 0.00 41 1014.1
20260830202621 97 206 3.0 13.0 0.00 0.00 0.00 40 1014.2
20260830201817 98 141 6.0 11.0 0.00 0.00 0.00 41 1014.5
20260830195621 98 80 3.0 16.0 0.00 0.00 0.00 40 1014.6
20260830194120 97 6 4.0 14.0 0.00 0.00 0.00 41 1014.9
20260830192620 96 186 2.0 18.0 0.00 0.00 0.00 45 1015.2
20260830191120 96 176 10.0 18.0 0.00 0.00 0.00 44 1015.5
20260830185620 97 131 5.0 11.0 0.00 0.00 0.00 42 1015.7
20260830184824 96 94 3.0 11.0 0.00 0.00 0.00 46 1015.7
20260830182618 96 145 5.0 14.0 0.00 0.00 0.00 45 1016.1
20260830181118 95 182 4.0 11.0 0.00 0.00 0.00 47 1016.5
20260830180314 94 63 3.0 11.0 0.00 0.00 0.00 49 1016.6
20260830174118 94 117 5.0 11.0 0.00 0.00 0.00 49 1016.9
20260830172617 93 252 2.0 14.0 0.00 0.00 0.00 53 1017.1
20260830171117 92 271 2.0 9.0 0.00 0.00 0.00 55 1017.2
20260830165616 92 118 5.0 9.0 0.00 0.00 0.00 54 1017.3
20260830164117 92 247 5.0 9.0 0.00 0.00 0.00 59 1017.3
20260830162615 90 313 2.0 9.0 0.00 0.00 0.00 63 1017.4
20260830161116 90 314 3.0 7.0 0.00 0.00 0.00 62 1017.3
20260830155616 89 168 2.0 9.0 0.00 0.00 0.00 64 1017.4
20260830154115 89 166 4.0 9.0 0.00 0.00 0.00 66 1017.4
20260830152615 87 214 2.0 7.0 0.00 0.00 0.00 69 1017.5
20260830151115 85 252 1.0 9.0 0.00 0.00 0.00 71 1017.4
20260830145614 85 252 3.0 9.0 0.00 0.00 0.00 74 1017.3
20260830144114 85 252 3.0 7.0 0.00 0.00 0.00 75 1017.4
20260830142614 85 137 2.0 9.0 0.00 0.00 0.00 76 1017.4
20260830141113 83 255 1.0 9.0 0.00 0.00 0.00 79 1017.4
20260830135613 82 220 3.0 9.0 0.00 0.00 0.00 81 1017.3
20260830134819 81 186 1.0 5.0 0.00 0.00 0.00 84 1017.1
20260830132612 80 176 0.0 3.0 0.00 0.00 0.00 86 1017.1
20260830131112 79 176 2.0 3.0 0.00 0.00 0.00 87 1017.1
20260830130321 78 176 1.0 2.0 0.00 0.00 0.00 88 1016.9
20260830124111 77 176 0.0 2.0 0.00 0.00 0.00 88 1016.8
20260830123316 77 176 0.0 0.0 0.00 0.00 0.00 88 1016.6
20260830121111 77 176 0.0 2.0 0.00 0.00 0.00 88 1016.6
20260830120309 77 176 0.0 0.0 0.00 0.00 0.00 88 1016.5
20260830114109 77 176 0.0 0.0 0.00 0.00 0.00 87 1016.5
20260830112611 77 176 1.0 2.0 0.00 0.00 0.00 87 1016.6
20260830111110 77 176 0.0 0.0 0.00 0.00 0.00 87 1016.4
20260830105608 77 176 0.0 2.0 0.00 0.00 0.00 87 1016.1
20260830104108 78 176 0.0 0.0 0.00 0.00 0.00 87 1016.1
20260830102609 78 176 0.0 2.0 0.00 0.00 0.00 86 1016.0
20260830101800 78 176 0.0 2.0 0.00 0.00 0.00 86 1015.8
20260830095608 78 176 0.0 0.0 0.00 0.00 0.00 86 1015.7
20260830094107 78 176 0.0 0.0 0.00 0.00 0.00 85 1015.9
20260830092607 79 176 0.0 2.0 0.00 0.00 0.00 85 1015.7